Location: Unspecified
(50.7693°N, 0.0000°E)
Time: 06:41:35
(UTC+00:00)

Transit 2A - Pass Details

Date: 25 June 2019
Orbit: 600 x 959 km, 66.7° (Epoch: 13 October)

Event Time Altitude Azimuth Distance (km) Brightness Sun altitude
Rises 02:10:02 0° 263° (W) 3,637 9.1 -10.7°
Reaches altitude 10° 02:13:05 10° 276° (W) 2,680 8.6 -10.4°
Maximum altitude 02:18:18 27° 332° (NNW) 1,722 8.2 -10.0°
Drops below altitude 10° 02:23:20 10° 29° (NNE) 2,564 10.4 -9.6°
Sets 02:26:11 0° 41° (NE) 3,450 11.5 -9.4°
